Weather Roundup
Issued by NWS Corpus Christi, TX

Home | Current Version | Previous Version | Text Only | Print | Product List | Glossary On
Versions: 1 2 3 4 5 6 7 8 9 10 11 12 13 14 15 16 17 18 19 20 21 22 23 24 25 26 27 28 29 30 31 32 33 34 35 36 37 38 39 40 41 42 43 44 45 46 47 48 49 50
000
ASUS44 KCRP 280910
HRRCRP

SOUTH TEXAS REGIONAL WEATHER ROUNDUP
NATIONAL WEATHER SERVICE CORPUS CHRISTI TX
400 AM CDT MON JUL 28 2014


TXZ229>244-281000-
...CORPUS CHRISTI AREA OBSERVATIONS...

CITY           SKY/WX    TMP DP  RH WIND       PRES   REMARKS
CORPUS CHRISTI PTCLDY    76  74  93 S7        30.04S
NAS CORPUS CHR CLEAR     81  78  91 S9        30.04S
ROCKPORT       CLEAR     82  77  84 S9        30.03S HX  90
KINGSVILLE NAS CLEAR     80  78  94 SE9       30.03F
ALICE          CLEAR     77  75  93 SE6       30.04S
FALFURRIAS     CLEAR     61  32  33 SE3       30.03S
$$

...VICTORIA AREA OBSERVATIONS...

CITY           SKY/WX    TMP DP  RH WIND       PRES   REMARKS
VICTORIA       CLEAR     77  75  93 S6        30.06R
BEEVILLE       FAIR      77  77 100 S6        30.05S
PLEASANTON     CLEAR     74  70  88 CALM      30.06S
SAN ANTONIO    CLEAR     77  71  82 S8        30.07S
$$

...LAREDO AREA OBSERVATIONS...

CITY           SKY/WX    TMP DP  RH WIND       PRES   REMARKS
LAREDO         CLEAR     81  73  76 SE10      30.04S
COTULLA        PTCLDY    77  71  82 SE12      30.03F
DEL RIO        CLEAR     84  68  58 E10G18    30.03R
MCALLEN        CLEAR     80  77  90 SE8       30.03R
HEBBRONVILLE   PTCLDY    79  73  84 SE9       30.05F
$$

...OTHER TEXAS OBSERVATIONS...

CITY           SKY/WX    TMP DP  RH WIND       PRES   REMARKS
BROWNSVILLE    CLEAR     80  78  94 SE6       30.03S
HOUSTON        PTCLDY    80  75  84 CALM      30.05R
COL. STATION   CLEAR     77  73  87 S3        30.04F
AUSTIN         CLEAR     73  72  96 S7        30.06R
WACO           CLEAR     80  70  71 S8        30.05R
FORT WORTH     PTCLDY    85  69  58 SW9       30.02S
WICHITA FALLS  PTCLDY    81  70  69 NE17G26   30.07R
LUBBOCK        PTCLDY    74  65  73 E8        30.18S
EL PASO        CLOUDY    80  57  45 N15       30.16R
$$

...MARINE OBSERVATIONS...

STATION/POSITION TIME  SKY/WX   TEMP    WIND        PRES    VSBY  WAVE   SWELL
                                AIR SEA DIR/SP/G                  HT/PER HT/PER
                 (UTC)          (F)     (DEG/KT/KT) (MB)    (MI)  (FT/S) (FT/S)
PORT ARANSAS     0900            80 82  170/  8/  9 1017.7F
BUOY 90 E PORT A 0900            83 83  180/ 10/ 12 1017.9S         3/ 6   2/ 6
BUOY 45 SE BAFFI 0900            84 84  160/ 16/ 17 1016.9F         4/ 5
BUOY 200 E PT IS 0900            84 86  170/  8/ 12 1017.6F         1/ 5   2/ 5
BUOY 15 E GALVES 0900            84     220/ 12     1016.9
$$


USA.gov is the U.S. government's official web portal to all federal, state and local government web resources and services.